FW6125 Ashburn VA US current weather conditions

sailwx.info

Wind from 057 at 3 knots gusting 9

Air temperature 6.1° C
Dewpoint -1.3° C

Last reported at 2020-Jan-28 22:09 UTC.
Time now 2020-Jan-28 22:49 UTC

Location: N 39°03' W 077°31'.
View on Google Maps.

See reports from other nearby stations

  
Tides and Currents Weather Stations Pressure Air Temp Water Temp Dewpoint Dewpoint Depression Visibility Wind Speed Wind Dir Waves Ship Positions
date/time (UTC)wind fromknots sea level pressurealtimeterstation pressurevisibilityair tempwater tempwave heightnotes
2020-Jan-28 22:09 057 3 gusting 9 6.1
2020-Jan-28 21:59 062 1 gusting 5 6.1
2020-Jan-28 21:49 059 3 gusting 6 6.1
2020-Jan-28 21:39 066 3 gusting 7 6.1
2020-Jan-28 21:29 051 3 gusting 8 6.7
2020-Jan-28 21:19 048 3 gusting 6 6.7
2020-Jan-28 21:09 038 2 gusting 6 6.7
2020-Jan-28 20:59 038 2 gusting 6 6.7
2020-Jan-28 20:49 043 3 gusting 9 6.7
2020-Jan-28 20:39 045 2 gusting 5 6.7
2020-Jan-28 20:29 040 3 gusting 8 6.7
2020-Jan-28 20:19 058 2 gusting 9 7.2
2020-Jan-28 20:09 055 1 gusting 6 7.2
2020-Jan-28 19:59 045 1 gusting 5 7.2
2020-Jan-28 19:49 068 1 gusting 6 7.2
2020-Jan-28 19:39 052 1 gusting 7 6.7
2020-Jan-28 19:29 063 2 gusting 7 6.7
2020-Jan-28 19:19 069 3 gusting 8 6.7
2020-Jan-28 19:09 056 2 gusting 6 6.7
2020-Jan-28 18:59 053 3 gusting 9 6.1
2020-Jan-28 18:49 055 2 gusting 9 6.1
2020-Jan-28 18:39 048 2 gusting 6 6.1
2020-Jan-28 18:29 066 1 gusting 5 6.1
2020-Jan-28 18:19 061 2 gusting 6 6.1
2020-Jan-28 18:09 064 1 gusting 4 6.1
2020-Jan-28 17:59 069 1 gusting 5 5.6
2020-Jan-28 17:49 053 1 gusting 4 5.6
2020-Jan-28 17:38 072 2 gusting 7 5.6
2020-Jan-28 17:28 049 2 gusting 7 5.6
2020-Jan-28 17:18 063 1 gusting 6 6.1
2020-Jan-28 17:08 060 1 gusting 4 6.1
2020-Jan-28 16:58 053 1 gusting 5 6.1
2020-Jan-28 16:48 046 1 gusting 6 6.1
2020-Jan-28 16:38 047 2 gusting 6 6.1
2020-Jan-28 16:28 051 2 gusting 8 6.1
2020-Jan-28 16:18 025 1 gusting 4 5.6
2020-Jan-28 16:08 045 1 gusting 11 5.6
2020-Jan-28 15:58 050 2 gusting 6 5.6
2020-Jan-28 15:48 051 1 gusting 3 5.6
2020-Jan-28 15:38 049 1 gusting 3 5.6
2020-Jan-28 15:28 053 1 gusting 4 5.6
2020-Jan-28 15:18 069 1 gusting 5 5.6
2020-Jan-28 15:08 069 1 gusting 5 5.6
2020-Jan-28 14:58 066 1 gusting 5 5.0
2020-Jan-28 14:48 060 2 gusting 6 5.0
2020-Jan-28 14:38 045 2 gusting 7 5.0
2020-Jan-28 14:28 065 2 gusting 6 4.4
2020-Jan-28 14:18 057 1 gusting 4 4.4
2020-Jan-28 14:08 060 1 gusting 5 3.9
2020-Jan-28 13:58 062 1 gusting 5 3.9
2020-Jan-28 13:48 065 1 gusting 4 3.9
2020-Jan-28 13:38 054 1 gusting 3 3.9
2020-Jan-28 13:28 066 1 gusting 5 3.3
2020-Jan-28 13:18 090 1 gusting 5 3.3
2020-Jan-28 13:08 090 0 gusting 3 3.3
2020-Jan-28 12:58 066 1 gusting 5 3.3
2020-Jan-28 12:48 074 1 gusting 3 3.3
2020-Jan-28 12:37 052 0 gusting 4 3.3
2020-Jan-28 12:27 052 0 gusting 4 3.3
2020-Jan-28 12:17 070 1 gusting 4 3.3
2020-Jan-28 12:07 058 1 gusting 3 3.3
2020-Jan-28 11:57 048 1 gusting 5 3.3
2020-Jan-28 11:47 046 1 gusting 4 3.3
2020-Jan-28 11:37 043 1 gusting 3 3.3
2020-Jan-28 11:27 049 1 gusting 4 3.3
2020-Jan-28 11:17 042 1 gusting 3 3.3
2020-Jan-28 11:07 054 1 gusting 3 3.3
2020-Jan-28 10:57 070 1 gusting 6 3.3
2020-Jan-28 10:47 041 1 gusting 5 3.3
2020-Jan-28 10:37 049 1 gusting 5 3.3
2020-Jan-28 10:27 047 0 gusting 3 3.3
2020-Jan-28 10:17 069 0 gusting 3 3.3
2020-Jan-28 10:07 055 1 gusting 3 3.3
2020-Jan-28 09:57 012 0 gusting 2 3.3
2020-Jan-28 09:47 045 0 gusting 4 3.3
2020-Jan-28 09:37 067 1 gusting 5 3.3
2020-Jan-28 09:27 058 1 gusting 6 3.3
2020-Jan-28 09:17 060 0 gusting 4 3.3
2020-Jan-28 09:07 050 0 gusting 3 3.3
2020-Jan-28 08:57 046 1 gusting 3 3.3
2020-Jan-28 08:47 065 1 gusting 4 3.3
2020-Jan-28 08:37 056 1 gusting 4 3.9
2020-Jan-28 08:27 059 1 gusting 4 3.9
2020-Jan-28 08:17 065 1 gusting 3 3.9
2020-Jan-28 08:07 050 0 gusting 3 3.9
2020-Jan-28 07:57 042 0 gusting 2 3.9
2020-Jan-28 07:46 045 0 gusting 1 3.9
2020-Jan-28 07:36 048 0 gusting 1 3.9
2020-Jan-28 07:26 050 1 gusting 3 3.9
2020-Jan-28 07:16 049 0 gusting 2 3.9
2020-Jan-28 07:06 056 1 gusting 3 3.9
2020-Jan-28 06:56 054 1 gusting 4 3.9
2020-Jan-28 06:46 064 1 gusting 4 3.9
2020-Jan-28 06:36 055 1 gusting 5 3.9
2020-Jan-28 06:26 055 1 gusting 5 3.9
2020-Jan-28 06:16 062 1 gusting 4 3.9
2020-Jan-28 06:06 068 1 gusting 3 3.9
2020-Jan-28 05:56 068 1 gusting 5 3.9
2020-Jan-28 05:46 059 1 gusting 4 3.9
2020-Jan-28 05:36 054 0 gusting 3 3.9
2020-Jan-28 05:26 066 1 gusting 2 3.9
2020-Jan-28 05:16 047 1 gusting 4 3.9
2020-Jan-28 05:06 066 1 gusting 5 3.9
2020-Jan-28 04:56 064 1 gusting 5 4.4
2020-Jan-28 04:46 059 1 gusting 6 4.4
2020-Jan-28 04:36 062 1 gusting 5 4.4
2020-Jan-28 04:26 072 1 gusting 4 4.4
2020-Jan-28 04:16 062 1 gusting 3 4.4
2020-Jan-28 04:06 090 0 gusting 2 4.4
2020-Jan-28 03:56 062 1 gusting 3 4.4
2020-Jan-28 03:46 048 1 gusting 2 4.4
2020-Jan-28 03:36 068 1 gusting 3 4.4
2020-Jan-28 03:26 060 0 gusting 1 4.4
2020-Jan-28 03:16 056 0 gusting 1 4.4
2020-Jan-28 03:06 054 0 gusting 1 4.4
2020-Jan-28 02:56 057 0 gusting 3 4.4
2020-Jan-28 02:46 071 0 gusting 3 4.4
2020-Jan-28 02:35 067 0 gusting 3 4.4
2020-Jan-28 02:25 059 0 gusting 3 4.4
2020-Jan-28 02:15 053 0 gusting 2 4.4
2020-Jan-28 02:05 066 1 gusting 3 5.0
2020-Jan-28 01:55 067 1 gusting 4 5.0
2020-Jan-28 01:45 055 1 gusting 3 5.0
2020-Jan-28 01:35 073 1 gusting 5 5.0
2020-Jan-28 01:25 071 1 gusting 3 5.0
2020-Jan-28 01:15 056 1 gusting 3 5.0
2020-Jan-28 01:05 064 1 gusting 3 5.0
2020-Jan-28 00:55 066 1 gusting 3 5.0
2020-Jan-28 00:45 052 1 gusting 5 5.0
2020-Jan-28 00:35 062 1 gusting 6 5.0
2020-Jan-28 00:25 075 1 gusting 6 5.0
2020-Jan-28 00:15 064 1 gusting 3 5.6
2020-Jan-28 00:05 067 1 gusting 4 5.6
2020-Jan-27 23:55 062 1 gusting 5 5.6
2020-Jan-27 23:45 066 1 gusting 6 5.6
2020-Jan-27 23:35 065 1 gusting 6 5.6
2020-Jan-27 23:25 061 2 gusting 6 5.6
2020-Jan-27 23:15 065 2 gusting 6 5.6
2020-Jan-27 23:05 072 2 gusting 6 5.6
2020-Jan-27 22:55 066 1 gusting 6 6.1
2020-Jan-27 22:45 065 2 gusting 5 6.1
2020-Jan-27 22:35 065 2 gusting 6 6.1
2020-Jan-27 22:25 063 1 gusting 4 6.1
2020-Jan-27 22:15 063 1 gusting 4 6.1
2020-Jan-27 22:05 055 2 gusting 6 6.7
2020-Jan-27 21:55 050 3 gusting 9 6.7
2020-Jan-27 21:45 056 1 gusting 6 6.7
2020-Jan-27 21:34 065 3 gusting 7 6.7
2020-Jan-27 21:24 056 2 gusting 6 7.2
2020-Jan-27 21:14 045 2 gusting 6 7.2
2020-Jan-27 21:04 050 1 gusting 6 7.2
2020-Jan-27 20:54 047 3 gusting 8 7.8
2020-Jan-27 20:44 056 2 gusting 7 7.8
2020-Jan-27 20:34 037 1 gusting 6 7.8
2020-Jan-27 20:24 037 1 gusting 6 7.8
2020-Jan-27 20:14 047 2 gusting 6 7.8
2020-Jan-27 20:04 042 2 gusting 6 7.8
2020-Jan-27 19:54 042 2 gusting 6 7.8
2020-Jan-27 19:44 063 3 gusting 7 8.3
2020-Jan-27 19:34 062 3 gusting 9 8.9
2020-Jan-27 19:24 049 1 gusting 5 8.9
2020-Jan-27 19:14 049 1 gusting 5 8.9
2020-Jan-27 19:04 054 2 gusting 6 9.4
2020-Jan-27 18:54 058 3 gusting 9 9.4
2020-Jan-27 18:44 058 3 gusting 9 9.4
2020-Jan-27 18:34 069 3 gusting 9 9.4
2020-Jan-27 18:24 059 3 gusting 9 8.9
2020-Jan-27 18:14 059 3 gusting 9 8.9
2020-Jan-27 18:04 060 1 gusting 6 8.3
2020-Jan-27 17:54 065 3 gusting 6 8.3
2020-Jan-27 17:44 065 3 gusting 6 7.8
2020-Jan-27 17:34 049 1 gusting 4 7.8
2020-Jan-27 17:24 069 1 gusting 5 7.8
2020-Jan-27 17:14 068 1 gusting 6 7.8
2020-Jan-27 17:04 055 2 gusting 6 7.8
2020-Jan-27 16:54 055 2 gusting 6 7.8
2020-Jan-27 16:44 076 1 gusting 5 8.3
2020-Jan-27 16:33 064 2 gusting 6 8.3
2020-Jan-27 16:23 048 2 gusting 6 8.3
2020-Jan-27 16:13 067 1 gusting 5 7.8
2020-Jan-27 16:03 065 3 gusting 8 7.8
2020-Jan-27 15:53 069 1 gusting 3 7.2
2020-Jan-27 15:43 057 1 gusting 3 6.7
2020-Jan-27 15:33 057 1 gusting 3 6.7
2020-Jan-27 15:23 068 1 gusting 5 6.7
2020-Jan-27 15:14 139 0 gusting 3 6.1
2020-Jan-27 15:03 156 0 gusting 3 6.1
2020-Jan-27 14:53 156 0 gusting 3 6.1
2020-Jan-27 14:43 149 0 gusting 3 6.1
2020-Jan-27 14:33 180 0 gusting 2 6.1
2020-Jan-27 14:23 142 0 gusting 3 5.6
2020-Jan-27 14:13 090 0 gusting 5 5.6
2020-Jan-27 14:03 090 0 gusting 2 5.6
2020-Jan-27 13:53 108 0 gusting 1 5.6
2020-Jan-27 13:43 135 0 gusting 3 5.0
2020-Jan-27 13:33 090 0 gusting 1 5.0
2020-Jan-27 13:23 135 0 gusting 1 5.0
2020-Jan-27 13:13 127 0 gusting 1 5.0
2020-Jan-27 13:03 066 0 gusting 2 5.0
2020-Jan-27 12:53 090 0 gusting 1 5.0
2020-Jan-27 12:43 149 0 gusting 1 5.0
2020-Jan-27 12:33 090 0 gusting 1 5.0
2020-Jan-27 12:23 071 2 gusting 6 5.0
2020-Jan-27 12:13 101 1 gusting 2 4.4
2020-Jan-27 12:03 075 0 gusting 3 4.4
2020-Jan-27 11:53 090 0 gusting 4 4.4
2020-Jan-27 11:43 090 1 gusting 5 4.4
2020-Jan-27 11:32 066 1 gusting 5 3.9
2020-Jan-27 11:22 090 1 gusting 5 3.3
2020-Jan-27 11:12 151 0 gusting 2 2.2
2020-Jan-27 11:02 210 0 gusting 2 1.7
2020-Jan-27 10:52 255 0 gusting 3 2.2
2020-Jan-27 10:42 270 0 gusting 1 2.8
2020-Jan-27 10:32 198 0 gusting 1 2.8
2020-Jan-27 10:22 090 0 gusting 3 2.2
2020-Jan-27 10:12 185 0 gusting 1 2.2
2020-Jan-27 10:02 212 0 gusting 1 2.2
2020-Jan-27 09:52 225 0 gusting 1 2.2
2020-Jan-27 09:42 191 0 gusting 1 2.2
2020-Jan-27 09:32 234 0 gusting 1 1.7
2020-Jan-27 09:22 270 0 gusting 1 2.2
2020-Jan-27 09:12 239 0 gusting 0 2.2
2020-Jan-27 09:02 215 0 gusting 1 2.2
2020-Jan-27 08:52 200 0 gusting 1 2.2
2020-Jan-27 08:42 203 0 gusting 1 1.7
2020-Jan-27 08:32 225 0 gusting 1 1.7
2020-Jan-27 08:22 315 0 gusting 1 1.7
2020-Jan-27 08:12 225 0 gusting 0 1.7
2020-Jan-27 08:02 270 0 gusting 1 1.7
2020-Jan-27 07:52 270 0 gusting 1 1.7
2020-Jan-27 07:42 045 0 gusting 0 1.1
2020-Jan-27 07:32 225 0 gusting 0 1.7
2020-Jan-27 07:22 225 0 gusting 0 1.7
2020-Jan-27 07:12 270 0 gusting 0 2.2
2020-Jan-27 07:02 270 0 gusting 1 2.8
2020-Jan-27 06:52 270 0 gusting 0 2.8
2020-Jan-27 06:41 191 0 gusting 0 3.3
2020-Jan-27 06:31 198 0 gusting 1 3.3
2020-Jan-27 06:21 198 0 gusting 1 3.3
2020-Jan-27 06:11 218 0 gusting 1 3.3
2020-Jan-27 06:01 236 0 gusting 0 3.3
2020-Jan-27 05:51 209 0 gusting 1 3.3
2020-Jan-27 05:41 209 0 gusting 1 2.8
2020-Jan-27 05:31 198 0 gusting 0 2.8
2020-Jan-27 05:21 196 0 gusting 1 2.8
2020-Jan-27 05:11 192 0 gusting 1 2.8
2020-Jan-27 05:01 204 0 gusting 0 2.2
2020-Jan-27 04:51 174 0 gusting 1 2.2
2020-Jan-27 04:41 212 0 gusting 1 2.2
2020-Jan-27 04:31 135 0 gusting 0 2.2
2020-Jan-27 04:21 150 0 gusting 1 2.8
2020-Jan-27 04:11 150 0 gusting 1 2.8
2020-Jan-27 04:01 225 0 gusting 1 2.8
2020-Jan-27 03:51 270 0 gusting 0 3.3
2020-Jan-27 03:41 315 0 gusting 0 3.9
2020-Jan-27 03:31 315 0 gusting 0 3.9
2020-Jan-27 03:21 180 0 gusting 1 3.9
2020-Jan-27 03:11 142 0 gusting 2 3.9
2020-Jan-27 03:01 090 0 gusting 3 3.9
2020-Jan-27 02:51 225 0 gusting 1 3.9
2020-Jan-27 02:41 054 0 gusting 0 4.4
2020-Jan-27 02:31 161 0 gusting 0 4.4
2020-Jan-27 02:21 074 1 gusting 3 4.4
2020-Jan-27 02:11 053 1 gusting 2 4.4
2020-Jan-27 02:01 060 1 gusting 3 4.4
2020-Jan-27 01:51 059 1 gusting 4 4.4
2020-Jan-27 01:41 062 1 gusting 4 4.4
2020-Jan-27 01:30 062 1 gusting 4 4.4
2020-Jan-27 01:20 053 0 gusting 4 4.4
2020-Jan-27 01:10 045 1 gusting 3 4.4
2020-Jan-27 01:00 074 1 gusting 4 5.0
2020-Jan-27 00:50 037 1 gusting 3 5.0
2020-Jan-27 00:40 043 1 gusting 3 5.0
2020-Jan-27 00:30 043 1 gusting 3 5.0
2020-Jan-27 00:20 045 1 gusting 3 5.0
2020-Jan-27 00:10 064 1 gusting 3 5.0
2020-Jan-27 00:00 059 1 gusting 4 5.6
2020-Jan-26 23:50 063 1 gusting 4 5.6
2020-Jan-26 23:40 060 1 gusting 6 5.6
2020-Jan-26 23:30 069 1 gusting 4 5.6
2020-Jan-26 23:20 065 1 gusting 3 5.6
2020-Jan-26 23:10 065 1 gusting 3 5.6
2020-Jan-26 23:00 072 1 gusting 5 5.6
2020-Jan-26 22:50 072 1 gusting 5 5.6
2020-Jan-26 22:40 079 1 gusting 7 6.1
2020-Jan-26 22:30 068 2 gusting 5 6.1
2020-Jan-26 22:20 054 2 gusting 6 6.1
2020-Jan-26 22:10 065 1 gusting 4 6.1
2020-Jan-26 22:00 063 1 gusting 5 6.7